CW4114 Weather Reports


Display with metric or nautical units.
time (UTC)temp
F
wind
direction
speed
MPH
gust
MPH
rain 1hr
in
rain 24hr
in
rain mn
in
humidity
%
barometer
mb
20260507022732 40 300 1.0 3.0 0.00 0.00 0.00 74 1011.4
20260507022232 40 317 0.0 3.0 0.00 0.00 0.00 74 1011.3
20260507021731 40 295 0.0 3.0 0.00 0.00 0.00 74 1011.3
20260507021231 40 334 2.0 3.0 0.00 0.00 0.00 72 1011.3
20260507020734 40 331 0.0 3.0 0.00 0.00 0.00 72 1011.3
20260507020458 40 329 2.0 3.0 0.00 0.00 0.00 71 1011.3
20260507015732 40 322 1.0 3.0 0.00 0.00 0.00 71 1011.3
20260507015231 40 281 1.0 3.0 0.00 0.00 0.00 71 1011.2
20260507014731 40 261 2.0 3.0 0.00 0.00 0.00 71 1011.2
20260507014231 40 259 2.0 3.0 0.00 0.00 0.00 70 1011.2
20260507013732 41 247 1.0 4.0 0.00 0.00 0.00 70 1011.1
20260507013234 41 261 1.0 4.0 0.00 0.00 0.00 69 1011.1
20260507012732 41 272 2.0 5.0 0.00 0.00 0.00 69 1011.1
20260507012232 41 296 1.0 5.0 0.00 0.00 0.00 69 1011.1
20260507011731 41 307 1.0 5.0 0.00 0.00 0.00 69 1011.1
20260507011232 41 334 2.0 5.0 0.00 0.00 0.00 69 1010.9
20260507010731 41 334 1.0 5.0 0.00 0.00 0.00 70 1011.0
20260507010232 41 351 2.0 5.0 0.00 0.00 0.00 68 1011.0
20260507005726 41 316 2.0 5.0 0.00 0.00 0.00 68 1011.0
20260507005454 41 322 2.0 7.0 0.00 0.00 0.00 68 1010.9
20260507004724 41 0 3.0 7.0 0.00 0.00 0.00 70 1011.0
20260507004224 41 243 2.0 5.0 0.00 0.00 0.00 73 1010.9
20260507003724 41 338 3.0 7.0 0.00 0.00 0.00 72 1010.9
20260507003225 41 340 3.0 7.0 0.00 0.00 0.00 71 1010.8
20260507002947 41 320 2.0 7.0 0.00 0.00 0.00 71 1010.8
20260507002223 41 333 3.0 7.0 0.00 0.00 0.00 73 1010.8
20260507001723 41 2 2.0 7.0 0.00 0.00 0.00 74 1010.8
20260507001223 41 358 4.0 9.0 0.00 0.00 0.00 73 1010.8
20260507000723 41 334 4.0 11.0 0.00 0.00 0.00 72 1010.8
20260507000223 41 340 5.0 12.0 0.00 0.00 0.00 73 1010.7
20260506235726 41 305 4.0 12.0 0.00 0.00 0.00 74 1010.7
20260506235220 41 11 4.0 7.0 0.00 0.00 0.00 75 1010.7
20260506234720 41 312 3.0 7.0 0.00 0.00 0.00 75 1010.6
20260506234219 41 336 3.0 10.0 0.00 0.00 0.00 74 1010.7
20260506233718 41 31 3.0 10.0 0.00 0.00 0.00 74 1010.7
20260506232717 41 28 4.0 11.0 0.00 0.00 0.00 73 1010.7
20260506232458 41 327 5.0 11.0 0.00 0.00 0.00 73 1010.6
20260506231718 41 351 4.0 14.0 0.00 0.00 0.00 73 1010.6
20260506231217 41 324 6.0 14.0 0.00 0.00 0.00 73 1010.8
20260506230938 41 340 4.0 12.0 0.00 0.00 0.00 73 1010.7
20260506230215 41 348 5.0 13.0 0.00 0.00 0.00 73 1010.7
20260506225659 41 323 6.0 12.0 0.00 0.00 0.00 73 1010.7
20260506225427 41 0 4.0 11.0 0.00 0.00 0.00 73 1010.7
20260506224700 41 0 5.0 11.0 0.00 0.00 0.00 72 1010.8
20260506224203 42 323 5.0 13.0 0.00 0.00 0.00 71 1010.8
20260506223657 42 320 7.0 13.0 0.00 0.00 0.00 70 1010.7
20260506223157 42 343 8.0 13.0 0.00 0.00 0.00 69 1010.6
20260506222925 42 353 5.0 14.0 0.00 0.00 0.00 69 1010.5
20260506222156 42 329 8.0 14.0 0.00 0.00 0.00 70 1010.6
20260506221922 42 330 4.0 12.0 0.00 0.00 0.00 69 1010.6
20260506221155 42 340 6.0 14.0 0.00 0.00 0.00 69 1010.7
20260506220656 42 357 5.0 14.0 0.00 0.00 0.00 69 1010.6
20260506220428 42 324 8.0 14.0 0.00 0.00 0.00 71 1010.5
20260506215627 42 314 6.0 14.0 0.00 0.00 0.00 71 1010.4
20260506215127 42 338 6.0 12.0 0.00 0.00 0.00 71 1010.4
20260506214627 42 17 6.0 13.0 0.00 0.00 0.00 72 1010.4
20260506214125 42 323 5.0 12.0 0.00 0.00 0.00 73 1010.4
20260506213852 42 333 6.0 12.0 0.00 0.00 0.00 72 1010.4
20260506213356 42 5 6.0 12.0 0.00 0.00 0.00 71 1010.3
20260506211621 42 7 4.0 13.0 0.00 0.00 0.00 71 1010.3
20260506211120 42 355 4.0 14.0 0.00 0.00 0.00 71 1010.3
20260506210620 42 331 5.0 14.0 0.00 0.00 0.00 69 1010.3
20260506210125 42 353 5.0 12.0 0.00 0.00 0.00 70 1010.2
20260506205522 42 55 5.0 12.0 0.00 0.00 0.00 70 1010.2
20260506205021 42 337 6.0 11.0 0.00 0.00 0.00 70 1010.3
20260506204520 42 324 3.0 11.0 0.00 0.00 0.00 69 1010.3
20260506204019 42 350 5.0 11.0 0.00 0.00 0.00 72 1010.2
20260506203745 41 327 2.0 9.0 0.00 0.00 0.00 72 1010.1
20260506203022 41 343 5.0 12.0 0.00 0.00 0.00 71 1010.2
20260506202520 41 340 6.0 13.0 0.00 0.00 0.00 71 1010.3
20260506202020 41 2 4.0 13.0 0.00 0.00 0.00 71 1010.3
20260506201520 41 350 5.0 12.0 0.00 0.00 0.00 71 1010.3
20260506201022 41 7 5.0 12.0 0.00 0.00 0.00 71 1010.4
20260506200519 41 345 4.0 12.0 0.00 0.00 0.00 70 1010.3
20260506200019 42 290 6.0 13.0 0.00 0.00 0.00 70 1010.3
20260506195018 42 309 8.0 14.0 0.00 0.00 0.00 71 1010.2
20260506194521 42 327 4.0 11.0 0.00 0.00 0.00 70 1010.2
20260506194019 42 334 4.0 12.0 0.00 0.00 0.00 69 1010.3
20260506193517 42 314 5.0 15.0 0.00 0.00 0.00 68 1010.2
20260506193016 42 327 6.0 15.0 0.00 0.00 0.00 68 1010.2
20260506192512 42 341 5.0 13.0 0.00 0.00 0.00 68 1010.2
20260506192012 42 344 7.0 12.0 0.00 0.00 0.00 69 1010.2
20260506191512 42 0 5.0 13.0 0.00 0.00 0.00 69 1010.2
20260506191015 42 354 7.0 16.0 0.00 0.00 0.00 68 1010.2
20260506190007 42 21 5.0 16.0 0.00 0.00 0.00 68 1010.3
20260506185506 42 2 5.0 12.0 0.00 0.00 0.00 68 1010.2
20260506185005 42 7 5.0 13.0 0.00 0.00 0.00 68 1010.2
20260506184506 42 310 4.0 13.0 0.00 0.00 0.00 68 1010.3
20260506184004 42 4 5.0 13.0 0.00 0.00 0.00 68 1010.3
20260506183503 42 329 4.0 11.0 0.00 0.00 0.00 69 1010.2
20260506183006 42 350 6.0 11.0 0.00 0.00 0.00 68 1010.2
20260506182003 43 319 6.0 13.0 0.00 0.00 0.00 66 1010.2
20260506181502 43 331 5.0 13.0 0.00 0.00 0.00 68 1010.2
20260506181002 42 326 2.0 12.0 0.00 0.00 0.00 69 1010.3
20260506180456 42 288 6.0 9.0 0.00 0.00 0.00 70 1010.4
20260506175957 42 30 4.0 9.0 0.00 0.00 0.00 69 1010.3
20260506175722 42 7 2.0 7.0 0.00 0.00 0.00 69 1010.4
20260506174953 42 338 3.0 9.0 0.00 0.00 0.00 69 1010.5
20260506174454 42 27 3.0 10.0 0.00 0.00 0.00 69 1010.4
20260506173955 42 25 4.0 10.0 0.00 0.00 0.00 67 1010.4
20260506173454 42 51 2.0 9.0 0.00 0.00 0.00 65 1010.5
20260506172954 42 340 3.0 7.0 0.00 0.00 0.00 66 1010.6
20260506172453 42 4 3.0 6.0 0.00 0.00 0.00 66 1010.7
20260506171951 42 17 2.0 9.0 0.00 0.00 0.00 68 1010.7
20260506170950 42 358 3.0 6.0 0.00 0.00 0.00 69 1010.8
20260506170449 42 357 4.0 7.0 0.00 0.00 0.00 69 1010.7
20260506165948 42 35 3.0 7.0 0.00 0.00 0.00 71 1010.8
20260506165448 42 73 1.0 7.0 0.00 0.00 0.00 73 1010.7
20260506164946 42 27 3.0 9.0 0.00 0.00 0.00 71 1010.7
20260506164446 42 71 4.0 9.0 0.00 0.00 0.00 69 1010.8
20260506163948 42 354 3.0 9.0 0.00 0.00 0.00 69 1010.8
20260506163445 42 24 4.0 7.0 0.00 0.00 0.00 67 1010.7
20260506162944 42 42 4.0 7.0 0.00 0.00 0.00 64 1010.7
20260506162444 42 9 4.0 7.0 0.00 0.00 0.00 64 1010.7
20260506162217 43 336 3.0 9.0 0.00 0.00 0.00 65 1010.7
20260506161443 43 28 4.0 9.0 0.00 0.00 0.00 64 1010.6
20260506160938 44 18 4.0 9.0 0.00 0.00 0.00 66 1010.6
20260506160700 43 41 3.0 7.0 0.00 0.00 0.00 69 1010.6
20260506155937 42 358 2.0 10.0 0.00 0.00 0.00 69 1010.6
20260506155438 42 343 5.0 10.0 0.00 0.00 0.00 68 1010.6
20260506154935 42 18 4.0 7.0 0.00 0.00 0.00 68 1010.5
20260506154435 42 314 2.0 7.0 0.00 0.00 0.00 69 1010.6
20260506153935 41 30 4.0 9.0 0.00 0.00 0.00 70 1010.5
20260506153435 42 358 4.0 9.0 0.00 0.00 0.00 69 1010.5
20260506152936 42 37 4.0 7.0 0.00 0.00 0.00 67 1010.5
20260506152658 42 8 3.0 7.0 0.00 0.00 0.00 66 1010.6
20260506152204 42 351 2.0 6.0 0.00 0.00 0.00 67 1010.6
20260506151433 42 18 3.0 6.0 0.00 0.00 0.00 66 1010.6
20260506150934 42 21 3.0 9.0 0.00 0.00 0.00 66 1010.6
20260506150434 42 344 3.0 9.0 0.00 0.00 0.00 64 1010.6
20260506145937 42 24 2.0 7.0 0.00 0.00 0.00 64 1010.6
20260506145702 42 25 3.0 7.0 0.00 0.00 0.00 64 1010.5
20260506144932 42 38 3.0 11.0 0.00 0.00 0.00 62 1010.5
20260506144434 42 5 4.0 11.0 0.00 0.00 0.00 60 1010.3
20260506143932 42 347 4.0 9.0 0.00 0.00 0.00 58 1010.4
20260506143431 42 344 4.0 10.0 0.00 0.00 0.00 58 1010.4
20260506142930 43 336 5.0 10.0 0.00 0.00 0.00 57 1010.4
20260506142701 42 247 1.0 7.0 0.00 0.00 0.00 58 1010.4
20260506141923 42 357 3.0 7.0 0.00 0.00 0.00 54 1010.5
20260506141423 43 340 4.0 9.0 0.00 0.00 0.00 54 1010.3
20260506140925 43 8 5.0 9.0 0.00 0.00 0.00 53 1010.3
20260506140423 43 18 2.0 9.0 0.00 0.00 0.00 54 1010.3
20260506135922 43 9 2.0 10.0 0.00 0.00 0.00 53 1010.3
20260506135425 43 327 3.0 10.0 0.00 0.00 0.00 53 1010.3
20260506134422 42 357 3.0 11.0 0.00 0.00 0.00 59 1010.2
20260506133922 42 8 2.0 9.0 0.00 0.00 0.00 58 1010.2
20260506133420 41 275 2.0 11.0 0.00 0.00 0.00 59 1010.2
20260506132920 41 293 5.0 11.0 0.00 0.00 0.00 59 1010.2
20260506132420 41 299 5.0 11.0 0.00 0.00 0.00 59 1010.2
20260506131920 41 317 4.0 9.0 0.00 0.00 0.00 58 1010.2
20260506131652 41 300 4.0 9.0 0.00 0.00 0.00 61 1010.1
20260506130923 42 329 2.0 9.0 0.00 0.00 0.00 62 1010.1
20260506130420 41 274 9.0 11.0 0.00 0.00 0.00 61 1010.2
20260506125920 41 292 7.0 11.0 0.00 0.00 0.00 63 1010.1
20260506125419 41 340 3.0 11.0 0.00 0.00 0.00 63 1010.1
20260506124915 40 358 7.0 11.0 0.00 0.00 0.00 65 1010.0
20260506124644 40 319 5.0 10.0 0.00 0.00 0.00 67 1010.0
20260506124143 40 286 5.0 9.0 0.00 0.00 0.00 67 1010.0
20260506123414 39 247 6.0 11.0 0.00 0.00 0.00 69 1010.0
20260506122915 39 299 4.0 11.0 0.00 0.00 0.00 69 1010.0
20260506122638 39 259 3.0 10.0 0.00 0.00 0.00 70 1010.1
20260506121912 38 262 7.0 10.0 0.00 0.00 0.00 71 1010.0
20260506121412 38 257 6.0 10.0 0.00 0.00 0.00 74 1010.0
20260506121139 37 278 3.0 7.0 0.00 0.00 0.00 76 1009.9
20260506120412 37 274 5.0 7.0 0.00 0.00 0.00 77 1010.0
20260506115912 36 295 4.0 7.0 0.00 0.00 0.00 78 1009.9
20260506115415 36 258 6.0 7.0 0.00 0.00 0.00 79 1009.8
20260506115139 36 258 3.0 6.0 0.00 0.00 0.00 80 1009.8
20260506114411 35 262 4.0 6.0 0.00 0.00 0.00 81 1009.7
20260506114136 35 268 3.0 5.0 0.00 0.00 0.00 83 1009.7
20260506113655 34 254 3.0 6.0 0.00 0.00 0.00 83 1009.6
20260506112909 34 274 3.0 6.0 0.00 0.00 0.00 84 1009.6
20260506112411 33 278 3.0 5.0 0.00 0.00 0.00 85 1009.6
20260506111906 33 282 2.0 5.0 0.00 0.00 0.00 86 1009.4
20260506111405 32 278 3.0 5.0 0.00 0.00 0.00 87 1009.2
20260506110908 32 264 2.0 4.0 0.00 0.00 0.00 87 1009.0
20260506110404 31 268 2.0 4.0 0.00 0.00 0.00 88 1009.1
20260506110127 31 269 2.0 4.0 0.00 0.00 0.00 88 1009.0
20260506105403 31 288 2.0 4.0 0.00 0.00 0.00 88 1009.0
20260506104903 30 274 3.0 4.0 0.00 0.00 0.00 89 1009.0
20260506104404 30 271 2.0 4.0 0.00 0.00 0.00 89 1009.0
20260506103903 30 258 2.0 4.0 0.00 0.00 0.00 88 1008.9
20260506103402 29 261 2.0 4.0 0.00 0.00 0.00 88 1008.9
20260506102903 30 258 2.0 4.0 0.00 0.00 0.00 88 1009.0
20260506102405 30 251 2.0 3.0 0.00 0.00 0.00 88 1008.9
20260506101903 30 264 2.0 3.0 0.00 0.00 0.00 88 1008.8
20260506101401 30 265 2.0 4.0 0.00 0.00 0.00 88 1008.8
20260506100902 30 267 2.0 4.0 0.00 0.00 0.00 88 1008.9
20260506100400 30 272 2.0 3.0 0.00 0.00 0.00 87 1008.9
20260506095900 30 269 2.0 3.0 0.00 0.00 0.00 87 1008.9
20260506095626 30 268 2.0 3.0 0.00 0.00 0.00 87 1009.0
20260506094858 30 267 2.0 2.0 0.00 0.00 0.00 87 1009.0
20260506094357 30 272 1.0 3.0 0.00 0.00 0.00 87 1008.9
20260506093853 30 265 1.0 3.0 0.00 0.00 0.00 86 1008.9
20260506093354 31 265 1.0 3.0 0.00 0.00 0.00 86 1008.9
20260506092854 31 267 1.0 2.0 0.00 0.00 0.00 86 1008.9
20260506092616 31 264 1.0 3.0 0.00 0.00 0.00 86 1009.0
20260506091853 31 268 2.0 3.0 0.00 0.00 0.00 86 1008.9
20260506091352 31 272 1.0 3.0 0.00 0.00 0.00 86 1008.9
20260506090853 31 272 2.0 3.0 0.00 0.00 0.00 85 1008.8
20260506090352 31 271 1.0 2.0 0.00 0.00 0.00 85 1008.9
20260506090115 31 278 1.0 3.0 0.00 0.00 0.00 84 1008.8
20260506085620 31 261 1.0 3.0 0.00 0.00 0.00 84 1008.7
20260506084851 31 259 1.0 2.0 0.00 0.00 0.00 83 1008.7
20260506084352 31 248 0.0 2.0 0.00 0.00 0.00 83 1008.7
20260506083351 32 244 1.0 2.0 0.00 0.00 0.00 82 1008.7
20260506082849 32 243 0.0 2.0 0.00 0.00 0.00 81 1008.7
20260506082349 32 243 1.0 2.0 0.00 0.00 0.00 80 1008.7
20260506081849 33 244 1.0 2.0 0.00 0.00 0.00 80 1008.7
20260506081349 33 243 1.0 2.0 0.00 0.00 0.00 79 1008.7
20260506080849 33 243 1.0 3.0 0.00 0.00 0.00 78 1008.8
20260506080618 33 243 2.0 3.0 0.00 0.00 0.00 77 1008.8
20260506080110 34 241 2.0 3.0 0.00 0.00 0.00 76 1008.8
20260506072835 35 276 1.0 4.0 0.00 0.00 0.00 72 1008.8
20260506072333 36 300 1.0 4.0 0.00 0.00 0.00 72 1008.8
20260506071834 36 314 2.0 5.0 0.00 0.00 0.00 72 1008.8
20260506071334 36 320 2.0 5.0 0.00 0.00 0.00 73 1008.8
20260506070833 36 305 1.0 5.0 0.00 0.00 0.00 74 1008.9
20260506070333 37 286 1.0 6.0 0.00 0.00 0.00 75 1008.9
20260506062333 37 355 5.0 7.0 0.00 0.00 0.00 76 1008.6
20260506061833 37 337 3.0 7.0 0.00 0.00 0.00 76 1008.7
20260506061556 37 340 2.0 6.0 0.00 0.00 0.00 76 1008.8
20260506060833 37 305 3.0 6.0 0.00 0.00 0.00 77 1008.8
20260506060332 37 353 2.0 5.0 0.00 0.00 0.00 78 1008.8
20260506050833 37 314 0.0 4.0 0.00 0.00 0.00 78 1009.1
20260506050332 37 357 1.0 4.0 0.00 0.00 0.00 78 1009.1
20260506044834 37 310 1.0 3.0 0.00 0.00 0.00 79 1009.2
20260506044333 37 358 2.0 4.0 0.00 0.00 0.00 79 1009.1
20260506044101 37 353 1.0 4.0 0.00 0.00 0.00 79 1009.1
20260506043334 37 355 2.0 3.0 0.00 0.00 0.00 79 1009.1
20260506042835 37 348 2.0 5.0 0.00 0.00 0.00 79 1009.1
20260506042334 38 1 3.0 5.0 0.00 0.00 0.00 79 1009.1
20260506041849 38 24 2.0 6.0 0.00 0.00 0.00 79 1009.0
20260506041559 38 333 1.0 6.0 0.00 0.00 0.00 79 1008.9
20260506040832 38 32 2.0 5.0 0.00 0.00 0.00 79 1008.7
20260506040329 38 8 1.0 5.0 0.00 0.00 0.00 78 1008.7
20260506040105 38 54 2.0 6.0 0.00 0.00 0.00 78 1008.7
20260506035329 38 358 2.0 6.0 0.00 0.00 0.00 78 1008.8
20260506034829 38 351 3.0 6.0 0.00 0.00 0.00 79 1008.8
20260506034328 38 12 3.0 6.0 0.00 0.00 0.00 79 1008.7
20260506033825 38 322 2.0 7.0 0.00 0.00 0.00 80 1008.8
20260506033551 38 323 2.0 7.0 0.00 0.00 0.00 80 1008.7
20260506032826 38 341 3.0 6.0 0.00 0.00 0.00 80 1008.6
20260506032329 38 353 2.0 6.0 0.00 0.00 0.00 81 1008.6
20260506031323 38 344 2.0 6.0 0.00 0.00 0.00 81 1008.5
20260506030823 38 5 3.0 6.0 0.00 0.00 0.00 81 1008.5
20260506030324 38 345 2.0 6.0 0.00 0.00 0.00 81 1008.4
20260506030059 38 299 3.0 6.0 0.00 0.00 0.00 80 1008.4
20260506025326 38 345 2.0 5.0 0.00 0.00 0.00 80 1008.2
20260506024820 38 1 2.0 9.0 0.00 0.00 0.00 80 1008.3
20260506024318 38 336 4.0 9.0 0.00 0.00 0.00 80 1008.2
20260506024044 38 1 3.0 9.0 0.00 0.00 0.00 80 1008.2
20260506023321 38 354 3.0 7.0 0.00 0.00 0.00 81 1008.1